GFSMW_prec_cthk_135.txt.gz
RH
37 36 36 35 35 35 34 33 31 30 29 28 27 27 27 28 27 26 25 24 24 24 24 24 24 23 21 21 22 27 31 36 53 84 88 80 77 68 65 63 62 54 50
35 35 34 34 34 34 34 34 34 32 31 29 28 27 26 26 27 27 28 27 26 26 25 25 24 23 23 23 23 23 28 28 32 44 72 82 77 68 70 66 62 57 53
34 33 33 35 36 35 35 34 32 32 32 33 32 32 31 30 30 30 30 31 30 29 28 27 26 25 23 23 25 27 25 31 30 35 47 63 63 71 75 73 70 64 58
34 34 36 37 37 37 34 32 32 31 31 31 32 31 31 32 33 33 34 35 37 37 36 33 31 30 29 26 25 27 28 33 32 36 31 41 52 66 81 82 78 71 67
37 38 38 39 38 36 36 37 37 37 38 38 38 37 39 39 39 38 36 34 34 37 37 36 35 35 33 29 26 25 26 28 38 42 39 36 38 56 80 86 87 80 78
40 41 42 40 39 40 39 39 40 41 42 42 43 44 44 45 46 46 44 43 41 40 42 42 40 37 35 33 28 24 24 26 29 39 43 44 43 43 62 81 94 95 92
45 46 43 43 44 43 43 45 47 49 49 50 50 50 49 49 50 50 50 52 55 57 55 50 47 43 40 40 37 32 26 26 27 33 40 48 49 50 67 93 92 95 93
48 47 46 48 49 50 50 51 53 53 55 56 55 57 59 61 62 66 69 73 76 80 77 68 60 53 48 43 42 40 35 31 29 31 42 47 56 55 62 78 89 96 94
53 52 54 54 53 51 50 56 61 64 69 69 67 67 69 72 75 78 83 86 90 89 81 74 67 58 52 49 48 47 42 37 33 35 41 48 61 60 51 55 76 91 98
60 60 59 57 53 50 59 66 73 82 85 84 80 75 76 82 86 89 96 96 96 96 92 82 71 65 61 57 56 53 46 42 38 36 41 53 48 73 66 56 65 75 88
55 58 59 57 52 49 62 69 88 86 84 90 85 84 87 90 95 96 97 97 97 97 97 91 83 80 74 70 67 60 53 50 48 47 42 47 46 55 75 56 77 75 82
47 57 65 62 60 61 73 80 71 59 69 87 88 92 92 96 97 97 97 97 92 91 95 91 81 77 74 70 68 65 61 56 54 52 51 49 46 56 81 81 73 85 93
46 64 66 70 66 71 74 75 59 50 48 58 70 78 85 96 97 97 98 97 96 97 92 86 79 76 73 68 65 64 61 63 61 60 58 55 50 50 57 61 75 71 72
53 66 70 75 71 72 67 56 46 42 41 39 45 48 52 60 68 77 83 90 94 97 97 97 93 90 84 82 80 76 71 67 64 61 60 61 62 59 55 53 57 63 73
64 69 72 71 69 69 50 45 36 35 35 33 33 37 36 35 35 38 51 63 66 76 84 90 96 97 98 98 97 96 93 91 86 78 74 71 69 66 63 62 61 59 70
73 74 74 68 57 48 39 34 39 30 25 24 22 21 21 22 21 21 22 22 25 35 54 59 63 71 81 89 94 97 98 98 94 91 87 77 81 77 80 72 66 67 69
83 83 73 61 57 45 39 24 26 24 26 23 19 15 14 13 12 11 11 10 10 11 13 16 20 27 39 51 65 81 83 84 92 93 90 90 93 90 89 94 88 80 70
87 76 65 51 48 38 31 26 25 22 15 16 16 14 14 13 12 12 12 11 11 10 10 9 8 8 9 14 18 24 30 49 66 79 81 85 87 83 78 81 82 84 77
80 67 57 46 46 37 28 30 21 24 18 16 16 15 15 14 14 13 12 12 11 11 10 10 10 9 9 8 8 8 9 12 17 21 31 50 60 69 75 75 80 84 85
72 63 52 48 44 32 35 31 22 17 16 17 17 16 16 15 15 14 13 13 12 12 11 11 10 10 10 9 9 8 8 8 8 9 10 12 20 24 31 42 58 69 71
68 58 50 48 36 37 34 23 16 16 18 17 17 18 17 16 16 14 14 14 14 13 13 12 12 11 10 10 10 9 9 9 9 9 9 8 8 9 13 21 25 28 37
66 53 51 40 37 44 30 20 17 18 18 17 17 18 17 16 15 15 16 17 17 17 17 15 14 12 12 11 10 10 10 9 9 9 10 10 10 9 9 9 9 13 18
59 50 46 38 46 35 29 18 18 18 18 18 18 17 17 16 16 16 18 19 19 19 20 20 20 20 16 13 12 11 10 9 9 9 9 9 9 9 9 9 9 9 9
50 48 49 49 38 34 26 19 19 19 18 18 18 17 16 17 18 17 18 20 23 23 22 24 23 24 21 18 17 14 12 11 10 10 9 9 9 8 8 8 8 9 9
53 47 43 40 38 33 24 20 19 19 18 18 17 17 17 17 19 19 20 22 29 32 30 26 29 29 28 24 19 16 15 14 13 12 11 10 10 10 11 10 9 9 9
55 53 47 42 38 33 26 21 19 19 18 18 18 18 18 18 18 20 21 21 25 27 28 31 31 31 30 29 27 20 18 17 15 14 14 14 14 14 15 14 13 12 11

GFSMW_prec_cthk_138.txt.gz
RH
33 33 33 32 30 30 31 31 31 30 29 28 27 27 28 28 28 26 24 23 22 22 22 23 23 24 24 25 27 28 26 23 24 27 28 31 50 67 71 77 81 75 67
32 31 31 32 32 33 33 32 32 30 29 27 26 26 26 25 25 27 29 29 27 26 26 25 24 24 25 25 26 29 31 32 34 32 33 37 39 47 64 71 76 78 68
32 32 33 34 35 34 33 31 30 29 29 28 28 29 29 29 29 28 28 29 28 29 29 30 31 30 30 28 30 33 34 33 36 39 38 39 36 31 35 54 69 78 71
32 34 35 36 36 34 33 31 31 31 32 31 32 34 33 33 34 34 34 33 32 31 32 33 33 33 36 37 36 35 35 35 33 39 38 38 38 42 41 47 57 71 68
34 35 37 37 37 36 37 35 35 35 35 36 38 38 38 39 39 40 39 40 41 41 41 40 38 39 39 38 38 40 40 38 36 35 39 40 41 39 47 49 62 62 60
37 38 39 40 39 39 38 38 40 40 41 44 44 44 45 47 47 48 48 48 47 45 44 43 43 44 43 41 41 43 41 40 39 38 37 40 40 49 50 49 49 59 58
40 41 42 42 42 43 45 45 46 50 53 53 52 52 53 53 54 54 55 55 55 57 58 56 52 48 47 47 45 45 44 41 39 38 35 34 38 47 57 59 54 51 54
43 45 46 47 47 49 53 51 53 56 54 59 58 58 61 62 62 63 65 67 68 70 73 74 75 76 73 69 61 54 49 45 41 40 37 35 34 40 50 64 62 62 58
43 47 50 51 53 51 46 45 52 60 53 65 68 71 72 72 73 77 79 80 82 86 91 95 95 92 89 83 79 68 61 55 49 44 42 38 37 37 44 67 74 75 68
48 51 55 50 47 47 44 48 62 56 59 69 75 82 81 82 83 89 90 91 93 93 93 95 96 93 86 77 77 69 61 58 56 53 49 45 41 39 45 52 67 78 73
50 53 50 43 52 50 54 68 76 53 59 68 68 73 82 89 92 95 95 94 93 88 92 97 98 94 91 84 76 71 68 63 61 56 52 51 47 45 51 57 65 80 72
50 49 43 43 57 57 64 77 73 48 52 54 59 65 69 72 90 96 96 96 95 95 93 91 83 86 89 88 84 82 79 76 68 63 58 54 51 45 47 49 65 89 98
46 49 43 53 57 58 75 70 60 45 42 50 49 47 53 57 62 71 90 95 97 97 97 94 91 84 79 75 75 76 76 74 68 67 65 61 55 53 50 56 56 60 86
48 50 50 58 63 68 69 58 54 46 42 39 43 40 40 38 40 45 54 67 79 91 94 97 96 96 94 86 79 76 74 75 77 71 69 68 67 64 56 56 54 60 72
62 62 68 65 65 68 54 50 42 40 41 31 27 26 25 23 20 21 21 24 31 44 58 74 84 92 97 97 97 97 95 89 87 86 82 82 82 72 73 67 63 59 66
68 72 71 76 68 58 46 42 40 32 32 29 24 21 15 14 13 12 12 11 11 11 13 16 23 33 51 70 79 85 91 97 97 96 92 91 88 87 87 80 74 68 61
74 78 80 77 64 55 41 34 38 34 28 23 22 18 14 13 13 12 11 11 11 10 10 9 9 8 9 13 16 29 51 58 70 80 90 90 91 88 87 90 81 80 77
78 82 82 75 56 54 40 29 32 23 27 25 17 16 15 14 13 13 12 12 11 11 10 10 10 9 9 8 8 8 8 12 20 26 35 47 55 65 73 78 73 77 87
82 83 73 62 53 49 35 31 28 30 17 17 18 16 16 15 15 14 13 13 13 12 11 10 10 10 9 9 9 8 8 8 8 8 8 11 14 19 25 36 55 64 67
83 75 65 57 48 43 34 30 30 27 24 18 17 16 17 17 16 16 15 15 15 15 14 13 12 10 10 9 9 8 8 8 8 8 8 8 8 8 8 11 15 19 27
77 69 62 51 49 45 35 40 30 26 20 18 17 16 17 17 17 17 16 18 18 19 23 19 14 13 12 11 10 9 9 9 8 8 8 7 7 7 7 7 8 8 10
73 66 58 51 48 39 35 38 28 22 19 19 18 18 18 18 17 17 18 22 28 28 28 28 27 26 19 13 12 11 10 10 9 9 9 8 7 7 7 7 7 7 7
70 65 53 50 49 38 48 34 28 21 20 20 19 19 19 18 20 27 29 30 30 30 31 31 29 28 27 25 15 14 13 12 11 10 10 9 9 9 8 8 8 8 8
69 60 53 49 39 45 49 36 28 21 19 20 20 20 19 20 25 27 30 32 32 32 32 33 31 29 28 27 27 22 18 15 16 15 15 13 13 11 11 10 9 9 10
66 54 49 48 48 48 39 35 31 24 20 19 20 20 19 20 21 21 28 31 29 32 35 35 34 32 31 27 20 18 17 17 18 25 25 24 23 23 23 22 21 17 14
67 57 54 49 45 41 38 36 32 26 21 20 20 21 22 24 29 31 29 22 24 28 33 36 35 35 33 30 24 21 22 23 26 31 29 28 27 26 25 25 24 24 23

GFSMW_prec_cthk_144.txt.gz
RH
28 27 26 26 26 25 24 23 22 20 19 19 19 19 20 20 21 23 25 26 26 26 26 27 26 26 26 26 27 27 26 24 25 27 29 31 32 28 23 21 19 18 24
28 27 27 27 27 27 27 25 24 23 22 23 24 24 25 25 27 27 27 28 29 28 28 28 29 28 28 28 28 29 30 29 29 30 32 33 30 28 26 21 19 17 19
31 29 30 29 29 29 28 27 26 28 27 27 27 28 29 29 29 29 30 31 31 32 32 33 33 31 30 30 30 31 33 32 32 35 40 39 36 33 26 25 27 23 20
30 30 30 30 29 30 32 31 31 31 31 30 28 30 32 33 34 35 37 37 39 39 40 39 39 39 36 34 34 33 33 34 33 33 36 41 44 46 44 50 50 43 33
32 30 30 30 31 32 33 33 34 34 34 28 30 32 35 41 44 48 49 49 48 49 49 50 49 48 45 43 41 40 40 38 36 35 36 37 40 44 48 44 39 52 62
33 30 30 31 33 34 35 35 35 35 33 28 35 36 41 47 51 54 55 56 57 60 62 62 61 59 57 56 54 51 48 45 42 40 40 41 43 47 50 49 40 38 42
36 34 33 34 34 35 36 35 35 34 33 32 37 40 44 45 47 65 65 66 67 70 71 71 71 70 70 68 65 62 59 56 52 49 47 45 47 47 48 50 49 44 38
40 36 35 35 35 34 34 35 33 33 34 37 39 46 47 54 58 66 74 73 74 77 82 83 82 82 80 79 78 76 73 67 63 60 52 49 47 48 48 48 52 50 48
41 40 40 38 35 34 35 33 32 32 37 36 43 42 50 61 63 65 76 83 84 87 91 91 93 95 97 97 96 94 94 92 82 74 72 68 57 49 46 47 50 50 49
45 41 43 39 35 36 35 31 32 35 37 35 47 45 47 56 68 66 74 93 93 95 97 96 96 97 96 98 97 96 94 92 92 92 87 81 81 73 57 52 49 49 47
45 45 45 39 36 36 32 31 33 41 37 35 52 48 44 44 49 59 71 81 97 97 97 97 95 90 87 87 91 96 97 87 83 86 89 90 90 89 83 73 63 54 53
47 47 47 39 37 35 36 38 42 46 36 39 45 38 34 38 36 39 42 56 78 96 97 97 97 97 96 90 83 84 90 96 96 89 86 86 86 86 83 78 72 64 59
49 47 46 40 39 41 42 41 51 52 41 44 42 36 32 31 29 29 37 31 33 43 65 84 95 97 98 98 98 92 88 84 85 86 85 82 77 72 67 67 68 67 64
44 44 39 39 42 43 45 48 53 53 49 44 36 34 29 26 25 22 24 24 22 24 23 28 41 58 81 88 94 97 97 95 92 92 87 81 76 73 70 68 63 61 61
42 40 42 46 49 51 50 57 54 48 49 46 38 33 26 19 19 18 15 15 17 18 16 15 15 18 21 26 36 55 73 87 95 98 97 93 88 82 84 75 74 69 65
41 45 51 53 57 56 60 62 53 45 46 43 34 26 25 19 15 15 16 14 12 11 12 15 14 12 15 14 12 16 23 32 36 48 60 80 88 93 94 96 96 93 79
46 52 57 59 56 60 62 65 50 40 37 36 35 29 20 16 16 17 17 15 13 12 11 11 11 11 12 15 11 9 9 9 14 17 20 27 34 38 54 72 84 87 92
48 55 59 57 59 64 66 68 58 41 38 32 28 26 21 20 18 18 17 18 15 13 13 13 12 11 13 13 14 10 8 8 8 7 8 8 9 15 21 26 27 29 34
55 59 59 57 62 66 72 68 62 50 43 37 36 26 23 19 18 19 18 19 20 19 17 16 15 12 11 11 11 11 10 9 8 7 8 7 6 6 7 6 7 10 15
58 59 58 61 64 71 74 63 58 49 37 37 43 37 25 21 21 22 22 22 25 25 26 23 19 16 13 12 12 12 12 11 11 10 9 9 7 7 7 7 7 8 9
61 57 60 65 70 72 65 58 53 45 34 32 34 29 26 27 25 23 29 30 28 29 30 30 28 24 21 18 15 14 14 15 14 14 15 19 17 11 9 9 9 10 9
58 55 57 65 66 62 60 54 52 43 36 32 37 31 21 21 22 25 27 32 31 30 31 31 30 25 22 20 19 16 16 19 18 18 20 22 24 18 15 12 13 13 12
60 59 61 59 57 55 54 51 50 48 39 39 38 32 34 24 27 31 33 32 31 30 30 30 31 29 23 22 21 21 22 26 27 26 26 26 25 24 22 19 16 14 13
66 65 62 54 49 48 49 47 47 52 38 40 44 33 34 35 34 27 25 28 30 32 29 26 30 28 24 23 24 24 26 29 31 31 30 29 30 28 26 25 23 20 20
72 70 67 61 47 43 42 47 51 47 40 46 44 39 34 32 33 30 24 22 23 23 26 27 25 24 25 27 27 27 29 34 36 35 33 32 31 31 30 28 27 25 22
73 72 70 62 51 42 38 39 50 46 41 53 49 43 40 39 35 30 26 27 25 24 24 23 25 28 27 29 30 32 36 35 39 37 38 36 36 34 33 31 29 28 27

GFSMW_prec_cthk_147.txt.gz
RH
29 27 24 22 21 21 21 21 20 19 19 19 19 19 19 19 19 20 21 20 21 21 22 22 23 24 26 28 27 25 25 24 27 28 25 22 27 35 28 26 23 21 20
31 28 24 23 22 22 22 22 23 22 21 22 22 21 20 20 22 23 24 25 25 26 26 26 26 27 28 29 30 32 29 27 31 33 32 28 23 22 23 24 22 21 20
34 29 25 26 25 24 25 25 25 24 23 24 22 21 19 20 23 24 26 30 31 33 35 36 36 36 35 33 33 34 35 34 32 36 41 41 38 32 27 25 26 24 22
35 30 30 29 28 28 28 27 27 26 25 25 22 20 21 22 24 24 29 37 38 41 44 46 46 46 45 42 41 40 39 39 38 36 41 44 43 46 39 36 37 37 34
32 34 32 32 32 31 30 30 30 28 27 27 21 20 22 24 26 31 33 38 44 48 51 53 56 56 55 55 56 53 51 48 45 43 40 42 44 45 45 37 35 42 45
39 37 35 36 36 35 32 31 31 29 28 26 22 20 22 27 30 36 42 49 59 57 61 64 66 66 67 66 67 66 63 60 56 50 48 46 45 46 49 45 39 37 39
44 38 37 40 41 38 34 32 30 29 28 23 22 20 25 26 34 43 52 59 66 71 70 72 75 76 75 76 78 76 73 71 67 62 57 54 53 47 46 48 41 38 36
44 42 44 47 44 38 32 31 29 28 25 25 23 23 28 31 34 44 54 62 77 83 84 85 85 87 90 92 93 92 89 83 78 73 66 64 62 60 52 50 49 41 40
46 49 52 52 44 38 32 30 28 27 27 30 23 30 36 32 33 38 48 59 86 95 95 95 97 97 97 97 96 96 96 98 95 90 84 73 67 65 60 53 52 48 43
54 56 54 47 46 37 32 31 28 32 33 33 27 36 35 32 30 34 47 54 68 94 97 97 96 94 91 86 86 91 94 95 92 90 93 95 82 77 72 62 53 47 43
52 47 47 52 47 39 34 32 33 35 35 32 34 35 29 29 26 33 37 38 43 71 86 97 97 97 95 92 87 85 90 95 91 85 83 90 95 90 82 79 77 68 51
54 54 52 52 46 40 33 32 35 35 37 37 39 36 30 30 29 28 29 31 31 35 48 70 93 96 96 97 97 94 89 86 88 90 91 88 90 93 95 90 88 86 74
56 50 47 46 47 37 36 35 39 39 44 45 40 35 30 30 29 25 23 23 23 22 23 29 37 48 68 88 97 97 97 95 91 86 84 82 82 82 86 88 90 90 87
49 49 50 47 44 40 43 42 41 45 47 50 44 37 31 27 23 20 16 14 19 22 16 18 18 20 22 32 44 62 87 93 96 96 94 88 82 78 73 71 68 65 67
45 42 41 40 43 45 49 48 48 48 51 48 44 42 34 24 20 18 19 15 12 11 13 17 14 12 16 14 20 23 28 37 47 69 85 94 94 86 86 85 77 77 73
39 38 36 40 46 50 51 52 50 49 49 49 47 37 30 25 16 15 14 13 12 11 11 11 11 12 19 15 9 11 13 19 19 25 32 38 55 75 84 92 97 94 94
37 38 37 42 50 55 55 53 50 55 52 42 42 32 27 22 22 18 17 14 13 13 13 14 13 12 15 20 10 9 9 8 8 8 10 16 24 31 33 39 50 55 64
40 39 42 48 53 57 56 53 56 60 56 43 38 32 29 25 23 24 19 17 16 15 16 15 16 14 13 12 11 10 9 9 9 8 8 7 8 9 10 11 15 16 17
45 46 48 54 58 56 56 59 62 67 59 48 40 36 35 25 20 19 21 20 20 19 19 17 17 17 16 13 13 12 12 11 11 12 15 10 8 9 8 7 7 8 9
47 49 52 58 58 56 59 65 70 65 60 52 47 39 35 31 27 25 25 28 25 25 24 19 20 20 20 18 15 15 14 14 14 14 14 16 12 10 9 9 9 9 9
49 52 55 54 57 56 61 65 62 60 57 53 43 44 42 48 33 32 29 30 30 31 28 24 21 20 20 22 22 22 19 20 19 19 20 23 24 18 14 13 13 14 12
53 58 60 60 61 61 60 57 56 55 54 48 45 36 35 38 37 36 37 37 33 33 37 29 21 19 19 19 20 22 23 25 24 26 25 24 23 22 18 17 17 15 14
57 64 67 66 67 67 58 47 47 48 52 49 45 40 35 44 41 32 29 30 32 33 35 27 23 19 19 20 22 26 29 30 30 31 30 31 25 23 20 19 19 17 16
63 73 73 71 72 72 62 47 36 38 41 51 52 42 42 48 38 44 41 32 30 30 28 25 24 23 24 24 23 27 31 33 32 32 31 30 29 27 26 23 22 21 21
79 80 76 75 76 72 63 53 42 35 33 42 50 45 43 51 48 37 39 35 30 31 30 26 25 25 26 30 30 35 37 37 37 35 32 31 32 31 30 29 28 27 24
78 76 75 71 66 57 49 43 38 35 34 42 49 44 48 56 49 41 38 36 33 31 31 29 27 27 26 26 34 43 45 46 45 41 39 39 39 37 36 34 32 30 29